Torna al catalogo

SL-8 DEB

AttivoLEO
NORAD 39839·DEBRIS·🇷🇺 Russia

Lanciato Feb 12, 1991 da Plesetsk Cosmodrome

Loading…

Prossimi Passaggi (prossime 24 ore)

TLE

In scadenzaSource: Space-Track

Epoca: Sep 12, 2026, 16:53 UTC

1 39839U 91009DX  26255.70373791 -.00000014  00000-0  20336-4 0  9992
2 39839  73.8346  11.6675 0091412 203.5448 156.1405 12.49453894915404

Traccia SL-8 DEB in tempo reale con AllMySat

Download on the App Store